CW9688 Weather Reports


time (UTC)temp
C
wind
direction
speed
KPH
gust
KPH
rain 1hr
cm
rain 24hr
cm
rain mn
cm
humidity
%
barometer
mb
20260831110305 17 207 1.6 4.8 0.00 0.05 0.00 64 1013.5
20260831105804 17 205 3.2 8.0 0.00 0.05 0.00 64 1013.5
20260831104805 17 228 3.2 8.0 0.00 0.05 0.00 63 1013.5
20260831103305 17 206 1.6 4.8 0.00 0.05 0.00 63 1013.5
20260831101804 16 218 1.6 4.8 0.00 0.05 0.00 69 1013.5
20260831101306 16 220 1.6 4.8 0.00 0.05 0.00 69 1013.5
20260831100805 17 202 3.2 4.8 0.00 0.05 0.00 69 1013.5
20260831100305 16 199 1.6 8.0 0.00 0.05 0.00 69 1013.5
20260831094805 16 208 0.0 1.6 0.00 0.05 0.00 72 1013.5
20260831093305 17 198 1.6 4.8 0.00 0.05 0.00 71 1013.5
20260831092804 17 198 1.6 3.2 0.00 0.05 0.00 71 1013.5
20260831092306 16 198 1.6 3.2 0.00 0.05 0.00 70 1013.5
20260831090304 17 146 1.6 3.2 0.00 0.05 0.00 69 1013.5
20260831085306 17 146 0.0 1.6 0.00 0.05 0.00 68 1013.5
20260831084304 17 146 0.0 3.2 0.00 0.05 0.00 67 1013.5
20260831083804 17 146 0.0 3.2 0.00 0.05 0.00 67 1013.5
20260831082306 16 146 0.0 0.0 0.00 0.05 0.00 69 1013.5
20260831081305 17 146 0.0 3.2 0.00 0.05 0.00 65 1013.5
20260831080305 17 146 1.6 3.2 0.00 0.05 0.00 64 1013.5
20260831073305 17 221 1.6 3.2 0.00 0.05 0.00 61 1013.5
20260831072805 17 191 1.6 1.6 0.00 0.05 0.00 61 1013.5
20260831071805 18 191 0.0 1.6 0.00 0.05 0.00 58 1013.5
20260831071306 18 191 1.6 3.2 0.00 0.05 0.00 58 1013.5
20260831070804 18 191 1.6 3.2 0.00 0.05 0.00 57 1013.5
20260831070305 18 191 1.6 3.2 0.00 0.05 0.00 56 1013.5
20260831065805 18 311 1.6 3.2 0.00 0.05 0.00 56 1013.5
20260831064305 18 263 1.6 4.8 0.00 0.05 0.00 56 1013.5
20260831062306 20 275 1.6 4.8 0.00 0.05 0.00 51 1013.5
20260831061805 20 192 1.6 4.8 0.00 0.05 0.00 49 1013.5
20260831054805 21 238 4.8 11.3 0.00 0.05 0.05 45 1013.5
20260831054304 21 249 8.0 11.3 0.00 0.05 0.05 45 1013.5
20260831051305 21 277 9.7 16.1 0.00 0.05 0.05 52 1013.5
20260831045804 20 297 6.4 12.9 0.00 0.05 0.05 66 1013.5
20260831045306 20 300 4.8 16.1 0.00 0.05 0.05 66 1013.5
20260831044805 20 252 8.0 12.9 0.00 0.05 0.05 66 1013.5
20260831044305 19 274 4.8 11.3 0.00 0.05 0.05 67 1013.5
20260831043804 19 317 4.8 8.0 0.00 0.05 0.05 69 1013.5
20260831043305 19 216 1.6 3.2 0.00 0.05 0.05 68 1013.5
20260831042805 19 216 0.0 3.2 0.00 0.05 0.05 68 1013.5
20260831042307 20 216 1.6 3.2 0.00 0.05 0.05 67 1013.5
20260831041805 20 216 1.6 3.2 0.00 0.05 0.05 66 1013.5
20260831040805 20 203 3.2 8.0 0.00 0.05 0.05 64 1013.5
20260831040305 20 173 4.8 9.7 0.00 0.05 0.05 64 1013.5
20260831035804 20 181 4.8 11.3 0.00 0.05 0.05 64 1013.5
20260831034305 20 184 6.4 12.9 0.00 0.05 0.05 64 1013.5
20260831033804 20 185 8.0 11.3 0.00 0.05 0.05 64 1013.5
20260831033305 19 184 4.8 8.0 0.00 0.05 0.05 65 1013.5
20260831032306 18 213 3.2 4.8 0.00 0.05 0.05 66 1013.5
20260831030805 18 213 1.6 3.2 0.00 0.05 0.05 65 1013.5
20260831025805 19 249 3.2 4.8 0.00 0.05 0.05 63 1013.5
20260831025306 20 200 1.6 8.0 0.00 0.05 0.05 61 1013.5
20260831024305 20 210 3.2 8.0 0.00 0.05 0.05 61 1013.5
20260831022805 19 222 3.2 4.8 0.00 0.05 0.05 62 1013.5
20260831022306 19 212 3.2 4.8 0.00 0.05 0.05 64 1013.5
20260831021804 19 252 1.6 4.8 0.00 0.05 0.05 64 1011.6
20260831020804 19 179 1.6 4.8 0.00 0.05 0.05 64 1011.6
20260831020305 19 179 1.6 3.2 0.00 0.05 0.05 64 1011.6
20260831015805 19 179 1.6 3.2 0.00 0.05 0.05 64 1011.6
20260831014804 20 179 0.0 3.2 0.00 0.05 0.05 61 1011.6
20260831013305 20 144 1.6 3.2 0.00 0.05 0.05 61 1011.6
20260831012306 21 144 3.2 4.8 0.00 0.05 0.05 59 1011.6
20260831011305 21 160 4.8 8.0 0.00 0.05 0.05 57 1011.6
20260831010804 21 178 1.6 8.0 0.00 0.05 0.05 58 1011.6
20260831010306 21 178 6.4 9.7 0.00 0.05 0.05 57 1011.6
20260831005306 22 165 8.0 11.3 0.00 0.05 0.05 56 1011.6
20260831004804 22 183 6.4 12.9 0.00 0.05 0.05 54 1011.6
20260831003805 22 155 4.8 11.3 0.00 0.05 0.05 52 1011.6
20260831003305 22 173 8.0 16.1 0.00 0.05 0.05 51 1011.6
20260831002805 22 189 6.4 12.9 0.00 0.05 0.05 50 1011.6
20260831000305 23 153 3.2 9.7 0.00 0.05 0.05 47 1011.6
20260830234804 23 146 8.0 11.3 0.00 0.05 0.05 49 1011.6
20260830234305 23 125 3.2 9.7 0.00 0.05 0.05 48 1011.6
20260830233805 23 140 3.2 8.0 0.00 0.05 0.05 49 1011.6
20260830233305 23 140 1.6 3.2 0.00 0.05 0.05 48 1011.6
20260830225306 23 230 1.6 3.2 0.00 0.05 0.05 48 1011.6
20260830224304 22 230 1.6 3.2 0.00 0.05 0.05 49 1011.6
20260830223305 22 288 1.6 4.8 0.00 0.05 0.05 49 1011.6
20260830222804 21 194 3.2 4.8 0.00 0.05 0.05 51 1011.6
20260830222306 21 223 1.6 4.8 0.00 0.05 0.05 50 1011.6
20260830220805 21 306 9.7 22.5 0.00 0.05 0.05 53 1011.6
20260830215804 21 300 14.5 25.7 0.00 0.05 0.05 52 1011.6
20260830214304 21 287 16.1 35.4 0.00 0.05 0.05 51 1011.6
20260830213304 20 308 12.9 24.1 0.00 0.05 0.05 56 1011.6
20260830212306 20 298 14.5 29.0 0.05 0.05 0.05 60 1011.6
20260830210304 22 280 16.1 33.8 0.05 0.05 0.05 55 1011.6
20260830205805 22 293 17.7 37.0 0.05 0.05 0.05 60 1011.6
20260830204804 22 305 14.5 46.7 0.05 0.05 0.05 65 1011.6
20260830203304 24 288 20.9 40.2 0.05 0.05 0.05 42 1011.6
20260830202306 25 337 16.1 35.4 0.00 0.00 0.00 42 1011.6
20260830201304 25 339 19.3 35.4 0.00 0.00 0.00 42 1011.6
20260830200304 25 347 16.1 27.4 0.00 0.00 0.00 42 1011.6
20260830195804 27 331 17.7 33.8 0.00 0.00 0.00 36 1011.6
20260830195305 27 12 6.4 9.7 0.00 0.00 0.00 33 1011.6
20260830194305 28 156 8.0 11.3 0.00 0.00 0.00 31 1011.6
20260830192305 28 150 9.7 22.5 0.00 0.00 0.00 33 1011.6
20260830190304 27 64 9.7 12.9 0.00 0.00 0.00 34 1012.4
20260830185306 28 133 4.8 8.0 0.00 0.00 0.00 34 1012.4
20260830184804 28 169 8.0 12.9 0.00 0.00 0.00 33 1012.4
20260830184305 27 105 1.6 4.8 0.00 0.00 0.00 34 1012.4
20260830182306 27 69 4.8 11.3 0.00 0.00 0.00 34 1012.4
20260830181805 27 167 4.8 9.7 0.00 0.00 0.00 32 1012.4
20260830181304 28 186 1.6 9.7 0.00 0.00 0.00 33 1012.4
20260830175804 28 169 8.0 12.9 0.00 0.00 0.00 33 1012.4
20260830175306 28 153 4.8 9.7 0.00 0.00 0.00 33 1012.4
20260830172306 27 297 6.4 9.7 0.00 0.00 0.00 34 1012.4
20260830171804 27 288 3.2 9.7 0.00 0.00 0.00 36 1012.4
20260830171305 27 298 4.8 9.7 0.00 0.00 0.00 35 1012.4
20260830164305 26 281 8.0 12.9 0.00 0.00 0.00 36 1012.4
20260830163304 26 254 6.4 11.3 0.00 0.00 0.00 35 1012.4
20260830160804 25 271 1.6 3.2 0.00 0.00 0.00 44 1012.4
20260830160304 25 300 3.2 8.0 0.00 0.00 0.00 46 1012.4
20260830155805 24 327 4.8 9.7 0.00 0.00 0.00 45 1012.4
20260830150304 21 162 4.8 8.0 0.00 0.00 0.00 54 1012.4
20260830145804 21 163 3.2 4.8 0.00 0.00 0.00 55 1012.4
20260830145306 21 191 1.6 4.8 0.00 0.00 0.00 54 1012.4
20260830144804 21 186 6.4 9.7 0.00 0.00 0.00 55 1012.4
20260830144305 21 155 1.6 8.0 0.00 0.00 0.00 56 1012.4
20260830142805 20 198 1.6 3.2 0.00 0.00 0.00 56 1012.4
20260830142306 20 198 1.6 8.0 0.00 0.00 0.00 57 1012.4
20260830141805 20 221 3.2 8.0 0.00 0.00 0.00 58 1012.4
20260830141304 19 188 1.6 4.8 0.00 0.00 0.00 60 1012.4
20260830140804 19 212 4.8 8.0 0.00 0.00 0.00 62 1012.4
20260830135804 18 181 3.2 8.0 0.00 0.00 0.00 63 1012.4
20260830134804 18 146 1.6 8.0 0.00 0.00 0.00 63 1012.4
20260830134304 18 163 3.2 8.0 0.00 0.00 0.00 68 1012.4
20260830133304 17 193 1.6 3.2 0.00 0.00 0.00 70 1012.4
20260830132804 17 196 0.0 0.0 0.00 0.00 0.00 71 1012.4
20260830132306 16 196 0.0 0.0 0.00 0.00 0.00 71 1012.4
20260830131804 16 196 0.0 0.0 0.00 0.00 0.00 70 1012.4
20260830130305 16 196 0.0 0.0 0.00 0.00 0.00 70 1012.4
20260830125306 16 196 0.0 0.0 0.00 0.00 0.00 69 1012.4
20260830124804 16 196 0.0 3.2 0.00 0.00 0.00 69 1012.4
20260830123804 16 196 0.0 0.0 0.00 0.00 0.00 70 1012.4
20260830120804 16 284 1.6 3.2 0.00 0.00 0.00 70 1012.4
20260830120304 16 204 0.0 0.0 0.00 0.00 0.00 70 1012.4
20260830114305 17 204 0.0 4.8 0.00 0.00 0.00 67 1012.4
20260830113805 16 174 1.6 4.8 0.00 0.00 0.00 68 1012.4
20260830112804 16 166 1.6 3.2 0.00 0.00 0.00 69 1012.4
20260830112306 16 161 4.8 8.0 0.00 0.00 0.00 69 1012.4